Snowfall_Accumulation
0.0 0.0 0.0 0.0 0.0 0.0 0.0 0.0 0.0 0.0 0.0 0.0 0.0 0.0 0.0 0.0 0.0 0.0 0.0 0.0 0.0 0.0 0.0 0.0 0.0 0.0 0.0 0.0 0.0 0.0 0.0 0.0 0.0 0.0 0.0 0.0 0.0 0.0 0.0 0.0 0.0 0.0 0.0 0.0
0.1 0.0 0.0 0.0 0.0 0.0 0.0 0.0 0.1 0.0 0.0 0.0 0.0 0.0 0.0 0.0 0.0 0.0 0.0 0.0 0.0 0.0 0.0 0.0 0.0 0.0 0.0 0.0 0.0 0.0 0.0 0.0 0.0 0.0 0.0 0.0 0.0 0.0 0.0 0.0 0.0 0.0 0.0 0.0
0.1 0.0 0.0 0.0 0.0 0.0 0.0 0.0 0.0 0.0 0.0 0.0 0.0 0.0 0.0 0.0 0.0 0.0 0.0 0.0 0.0 0.0 0.0 0.0 0.0 0.0 0.0 0.0 0.0 0.0 0.0 0.0 0.0 0.0 0.0 0.0 0.0 0.0 0.0 0.0 0.0 0.0 0.0 0.0
0.1 0.0 0.0 0.0 0.0 0.0 0.0 0.0 0.0 0.0 0.3 0.4 0.0 0.5 0.0 0.0 0.0 0.0 0.0 0.0 0.0 0.0 0.0 0.0 0.0 0.0 0.0 0.0 0.0 0.0 0.0 0.0 0.0 0.0 0.0 0.0 0.0 0.0 0.0 0.0 0.0 0.0 0.0 0.0
0.1 0.0 0.0 0.0 0.0 0.0 0.0 0.0 0.0 0.0 0.1 0.1 0.0 0.3 0.0 0.0 0.0 0.0 0.0 0.0 0.0 0.0 0.0 0.0 0.0 0.0 0.0 0.0 0.0 0.0 0.0 0.0 0.0 0.0 0.0 0.0 0.0 0.0 0.0 0.0 0.0 0.0 0.0 0.0
0.0 0.0 0.0 0.0 0.0 0.0 0.0 0.0 0.0 0.0 0.1 5.3 0.0 0.0 0.0 0.0 0.0 0.0 0.0 0.0 0.0 0.0 0.0 0.0 0.0 0.0 0.0 0.0 0.0 0.0 0.0 0.0 0.0 0.0 0.0 0.0 0.0 0.0 0.0 0.0 0.0 0.0 0.0 0.0
0.0 0.0 0.0 0.0 0.0 0.0 0.0 0.5 12.5 16.4 20.2 5.9 0.0 0.1 0.0 0.0 0.0 0.0 0.0 0.0 0.0 0.0 0.0 0.0 0.0 0.0 0.0 0.0 0.0 0.0 0.0 0.0 0.0 0.0 0.0 0.0 0.0 0.0 0.0 0.0 0.0 0.0 0.0 0.0
4.4 8.6 0.1 0.0 0.0 0.2 0.1 0.3 5.1 5.4 5.6 1.3 0.0 0.2 0.0 0.0 0.0 0.0 0.0 0.0 0.0 0.0 0.0 0.0 0.0 0.0 0.0 0.0 0.0 0.0 0.0 0.0 0.0 0.0 0.0 0.0 0.0 0.0 0.0 0.0 0.0 0.0 0.0 0.0
4.5 2.3 0.0 0.0 0.0 0.0 0.8 3.4 0.0 2.7 1.9 1.9 0.1 0.0 0.0 0.0 0.0 0.0 0.0 0.0 0.0 0.0 0.0 0.0 0.0 0.0 0.0 0.0 0.0 0.0 0.0 0.0 0.0 0.0 0.0 0.0 0.0 0.0 0.0 0.0 0.0 0.0 0.0 0.0
2.6 6.4 0.9 0.1 0.1 0.0 0.1 0.0 3.4 3.5 10.7 3.8 0.8 0.1 0.4 0.0 0.0 0.0 0.0 0.0 0.0 0.0 0.0 0.0 0.0 0.0 0.0 0.0 0.0 0.0 0.0 0.0 0.0 0.0 0.0 0.0 0.0 0.0 0.0 0.0 0.0 0.0 0.0 0.0
1.3 3.1 2.9 0.3 1.5 0.4 0.3 1.4 0.0 0.3 1.4 4.8 5.0 0.9 0.1 0.1 0.0 0.0 0.0 0.0 0.0 0.0 0.0 0.0 0.0 0.0 0.0 0.0 0.0 0.0 0.0 0.0 0.0 0.0 0.0 0.0 0.0 0.0 0.0 0.0 0.0 0.0 0.0 0.0
0.1 1.4 4.4 4.0 0.2 0.0 0.0 0.1 0.1 2.5 3.6 1.5 2.7 2.7 0.1 0.1 0.1 0.1 0.0 0.0 0.0 0.0 0.0 0.0 0.0 0.0 0.0 0.0 0.0 0.0 0.0 0.0 0.0 0.0 0.0 0.0 0.0 0.0 0.0 0.0 0.0 0.0 0.0 0.0
0.0 3.5 8.5 7.2 3.4 0.3 0.7 0.0 0.0 0.2 0.8 3.0 10.0 3.4 0.1 0.1 0.3 0.1 0.2 0.2 0.1 0.0 0.0 0.0 0.0 0.0 0.0 0.0 0.0 0.0 0.0 0.0 0.0 0.0 0.0 0.0 0.0 0.0 0.0 0.0 0.0 0.0 0.0 0.0
nan 3.1 4.0 2.1 1.0 0.3 2.6 1.0 0.1 0.9 8.5 1.6 2.5 3.8 1.4 2.8 2.2 0.7 1.1 1.1 1.0 0.9 0.7 0.3 0.2 0.2 0.1 0.1 0.0 0.0 0.0 0.0 0.0 0.0 0.0 0.0 0.0 0.0 0.0 0.0 0.0 0.0 0.0 0.0
0.0 6.3 3.2 2.3 0.5 0.2 0.7 1.9 2.5 3.5 0.2 5.9 2.0 3.6 2.1 1.9 2.8 3.1 1.2 0.6 1.4 3.0 2.4 1.8 1.9 1.6 0.9 0.4 0.4 0.1 0.0 0.1 0.0 0.0 0.0 0.0 0.0 0.0 0.0 0.0 0.0 0.0 0.0 0.0
0.0 3.0 2.3 5.0 2.1 1.1 2.7 1.0 1.4 2.5 2.0 2.7 2.3 3.1 0.5 0.1 0.2 1.7 1.5 1.2 1.1 1.0 2.5 2.6 1.6 1.6 1.7 1.9 0.6 0.0 0.9 0.1 0.0 0.1 0.0 0.0 0.0 0.0 0.0 0.0 0.0 0.0 0.0 0.0
0.1 1.7 8.2 15.9 2.8 4.3 12.1 1.7 1.1 1.0 0.5 0.5 2.7 1.4 0.2 0.4 0.2 0.4 0.3 0.3 0.8 0.1 0.1 0.5 0.4 1.3 1.6 0.7 0.2 0.3 0.0 0.1 0.0 0.0 0.4 0.3 0.6 0.4 0.2 0.3 0.1 0.1 0.3 0.3
0.2 1.0 2.4 15.8 7.3 38.9 2.7 0.2 0.2 1.1 0.7 0.3 0.3 0.3 0.1 0.1 0.1 0.0 0.0 0.0 0.0 0.1 0.0 0.0 0.0 0.0 0.2 0.3 0.7 0.1 0.0 0.0 0.0 0.0 0.0 0.1 0.1 0.7 1.0 1.7 0.2 0.2 0.2 0.9
0.0 0.1 15.7 27.2 14.8 1.0 0.4 0.2 0.7 0.2 0.5 0.1 0.2 0.1 0.0 0.0 0.0 0.0 0.0 0.0 0.0 0.0 0.1 0.1 0.0 0.0 0.0 0.0 0.1 0.1 0.1 0.2 0.1 0.2 0.1 0.1 0.2 0.3 0.1 0.1 0.1 0.1 0.1 0.1
0.0 0.0 0.8 22.8 19.9 21.1 0.2 0.0 0.0 0.0 1.1 0.0 0.0 0.0 0.0 0.0 0.2 0.0 0.0 0.0 0.0 0.0 0.0 0.0 0.0 0.0 0.0 0.0 0.0 0.0 0.1 0.1 0.3 0.3 0.2 0.1 0.1 0.2 0.2 0.2 0.3 0.3 0.2 0.2
10.1 14.2 24.7 19.4 16.8 4.5 0.0 0.0 0.0 2.4 0.2 0.0 0.0 0.0 0.0 0.0 0.0 0.0 0.0 0.0 0.0 0.0 0.0 0.0 0.1 0.0 0.1 0.2 0.2 0.2 0.2 0.2 0.3 0.4 0.4 0.3 0.2 0.2 0.1 0.1 0.2 0.2 0.3 0.3
4.2 13.5 24.3 15.4 18.9 25.1 0.0 0.0 0.0 0.0 0.0 0.0 0.0 0.0 0.0 0.0 0.0 0.0 0.0 0.0 0.0 0.0 0.1 0.1 0.1 0.1 0.2 0.3 0.1 0.2 0.2 0.4 0.8 1.0 1.1 1.1 1.1 0.5 0.4 1.0 0.8 1.4 0.9 1.3
5.8 0.6 3.5 0.5 1.9 0.0 0.0 0.0 0.0 0.0 0.0 0.0 0.0 0.0 0.0 0.0 0.0 0.0 0.0 0.0 0.0 0.0 0.1 0.2 0.4 1.0 1.0 1.8 1.3 1.5 1.6 1.7 2.5 3.0 3.9 3.1 2.7 1.9 1.5 1.8 1.7 2.6 1.7 2.6
0.2 0.2 2.7 2.5 0.3 0.0 0.0 0.0 0.0 0.0 0.0 0.0 0.0 0.0 0.0 0.0 0.0 0.0 0.0 0.0 0.0 0.3 0.7 1.1 1.7 2.5 3.1 2.5 2.8 2.4 2.3 2.6 5.1 4.9 3.5 2.5 2.7 2.0 2.0 2.0 1.9 2.8 3.0 2.8
0.8 0.7 2.6 1.8 0.3 0.3 0.1 0.0 0.0 0.0 0.0 0.0 0.0 0.0 0.0 0.0 0.0 0.0 0.1 0.1 0.2 0.6 1.9 3.1 4.7 5.3 4.8 4.6 4.6 5.2 4.2 3.5 4.0 4.8 3.7 3.1 3.1 2.8 2.3 2.0 2.5 2.7 1.4 2.7
1.0 1.2 1.5 1.1 0.2 0.1 0.0 0.1 0.1 0.1 0.0 0.0 0.0 0.1 0.2 0.2 0.2 0.4 0.6 0.4 0.6 1.5 2.1 3.4 3.9 4.0 4.6 5.3 5.7 6.6 6.7 5.0 5.0 3.6 4.6 3.3 3.4 2.9 2.8 3.4 3.8 nan nan nan
Water_Equivalent
0.00 0.00 0.00 0.00 0.00 0.00 0.00 0.00 0.00 0.00 0.00 0.00 0.00 0.00 0.00 0.00 0.00 0.00 0.00 0.00 0.00 0.00 0.00 0.00 0.00 0.00 0.00 0.00 0.00 0.00 0.00 0.00 0.00 0.00 0.00 0.00 0.00 0.00 0.00 0.00 0.00 0.00 0.00 0.00
0.03 0.00 0.00 0.00 0.00 0.00 0.00 0.01 0.02 0.00 0.00 0.00 0.00 0.00 0.00 0.00 0.00 0.00 0.00 0.00 0.00 0.00 0.00 0.00 0.00 0.00 0.00 0.00 0.00 0.00 0.00 0.00 0.00 0.00 0.00 0.00 0.00 0.00 0.00 0.00 0.00 0.00 0.00 0.00
0.04 0.00 0.00 0.00 0.00 0.00 0.00 0.01 0.00 0.00 0.00 0.00 0.00 0.00 0.00 0.00 0.00 0.00 0.00 0.00 0.00 0.00 0.00 0.00 0.00 0.00 0.00 0.00 0.00 0.00 0.00 0.00 0.00 0.00 0.00 0.00 0.00 0.00 0.00 0.00 0.00 0.00 0.00 0.00
0.02 0.00 0.00 0.00 0.00 0.00 0.01 0.00 0.00 0.00 0.08 0.08 0.00 0.11 0.00 0.00 0.00 0.00 0.00 0.00 0.00 0.00 0.00 0.00 0.00 0.00 0.00 0.00 0.00 0.00 0.00 0.00 0.00 0.00 0.00 0.00 0.00 0.00 0.00 0.00 0.00 0.00 0.00 0.00
0.02 0.00 0.00 0.00 0.00 0.00 0.00 0.00 0.00 0.00 0.04 0.02 0.00 0.07 0.00 0.00 0.00 0.00 0.00 0.00 0.00 0.00 0.00 0.00 0.00 0.00 0.00 0.00 0.00 0.00 0.00 0.00 0.00 0.00 0.00 0.00 0.00 0.00 0.00 0.00 0.00 0.00 0.00 0.00
0.00 0.00 0.00 0.00 0.00 0.00 0.00 0.00 0.00 0.00 0.02 1.10 0.00 0.01 0.00 0.00 0.00 0.00 0.00 0.00 0.00 0.00 0.00 0.00 0.00 0.00 0.00 0.00 0.00 0.00 0.00 0.00 0.00 0.00 0.00 0.00 0.00 0.00 0.00 0.00 0.00 0.00 0.00 0.00
0.02 0.00 0.00 0.00 0.01 0.00 0.01 0.11 2.54 3.15 3.90 1.13 0.00 0.01 0.00 0.00 0.00 0.00 0.00 0.00 0.00 0.00 0.00 0.00 0.00 0.00 0.00 0.00 0.00 0.00 0.00 0.00 0.00 0.00 0.00 0.00 0.00 0.00 0.00 0.00 0.00 0.00 0.00 0.00
1.02 1.87 0.02 0.00 0.00 0.06 0.02 0.08 1.06 0.80 0.87 0.26 0.00 0.05 0.00 0.00 0.00 0.00 0.00 0.00 0.00 0.00 0.00 0.00 0.00 0.00 0.00 0.00 0.00 0.00 0.00 0.00 0.00 0.00 0.00 0.00 0.00 0.00 0.00 0.00 0.00 0.00 0.00 0.00
0.94 0.50 0.00 0.00 0.00 0.00 0.18 0.70 0.00 0.50 0.41 0.39 0.05 0.00 0.00 0.00 0.00 0.00 0.00 0.00 0.00 0.00 0.00 0.00 0.00 0.00 0.00 0.00 0.00 0.00 0.00 0.00 0.00 0.00 0.00 0.00 0.00 0.00 0.00 0.00 0.00 0.00 0.00 0.00
0.67 1.10 0.25 0.02 0.02 0.01 0.02 0.00 0.74 0.83 1.71 0.62 0.26 0.03 0.07 0.01 0.00 0.00 0.00 0.00 0.00 0.00 0.00 0.00 0.00 0.00 0.00 0.00 0.00 0.00 0.00 0.00 0.00 0.00 0.00 0.00 0.00 0.00 0.00 0.00 0.00 0.00 0.00 0.00
0.49 0.60 0.64 0.08 0.43 0.12 0.09 0.35 0.01 0.09 0.40 0.81 0.88 0.15 0.03 0.02 0.00 0.01 0.00 0.00 0.00 0.00 0.00 0.00 0.00 0.00 0.00 0.00 0.00 0.00 0.00 0.00 0.00 0.00 0.00 0.00 0.00 0.00 0.00 0.00 0.00 0.00 0.00 0.00
0.02 0.33 0.85 0.83 0.07 0.00 0.00 0.01 0.02 0.51 0.74 0.32 0.51 0.36 0.02 0.03 0.02 0.01 0.01 0.00 0.00 0.00 0.00 0.00 0.00 0.00 0.00 0.00 0.00 0.00 0.00 0.00 0.00 0.00 0.00 0.00 0.00 0.00 0.00 0.00 0.00 0.00 0.00 0.00
0.01 0.86 1.76 1.54 0.71 0.08 0.20 0.00 0.00 0.04 0.16 0.42 1.54 0.52 0.03 0.02 0.08 0.02 0.05 0.06 0.03 0.00 0.00 0.01 0.00 0.00 0.00 0.00 0.00 0.00 0.00 0.00 0.00 0.00 0.00 0.00 0.00 0.00 0.00 0.00 0.00 0.00 0.00 0.00
nan 0.70 0.72 0.37 0.19 0.08 0.53 0.23 0.03 0.17 1.66 0.32 0.46 0.67 0.28 0.63 0.45 0.18 0.30 0.31 0.28 0.24 0.21 0.09 0.06 0.05 0.03 0.02 0.01 0.00 0.00 0.00 0.00 0.00 0.00 0.00 0.00 0.00 0.00 0.00 0.00 0.00 0.00 0.00
0.00 1.30 0.67 0.46 0.10 0.04 0.15 0.36 0.51 0.64 0.06 1.07 0.35 0.73 0.39 0.41 0.59 0.74 0.29 0.15 0.35 0.97 0.73 0.50 0.55 0.44 0.22 0.13 0.12 0.04 0.00 0.03 0.00 0.00 0.00 0.00 0.00 0.00 0.00 0.00 0.00 0.00 0.00 0.00
0.00 0.77 0.42 0.93 0.40 0.24 0.45 0.19 0.29 0.46 0.43 0.53 0.43 0.52 0.12 0.03 0.06 0.37 0.34 0.29 0.25 0.26 0.77 0.84 0.45 0.47 0.42 0.49 0.15 0.01 0.36 0.03 0.00 0.03 0.00 0.00 0.00 0.00 0.00 0.01 0.00 0.00 0.00 0.00
0.02 0.43 2.42 3.84 0.48 0.73 2.39 0.27 0.20 0.21 0.11 0.13 0.49 0.29 0.04 0.12 0.04 0.08 0.06 0.06 0.16 0.03 0.02 0.11 0.08 0.41 0.36 0.18 0.06 0.06 0.01 0.02 0.00 0.00 0.17 0.10 0.21 0.16 0.07 0.12 0.02 0.04 0.12 0.13
0.06 0.23 0.74 3.69 1.91 6.87 0.52 0.04 0.05 0.23 0.15 0.08 0.07 0.08 0.02 0.02 0.02 0.00 0.00 0.00 0.01 0.02 0.00 0.00 0.00 0.01 0.03 0.06 0.20 0.05 0.00 0.00 0.02 0.00 0.01 0.02 0.02 0.26 0.38 0.65 0.08 0.05 0.06 0.20
0.00 0.04 3.20 5.16 2.97 0.18 0.07 0.04 0.13 0.04 0.10 0.03 0.05 0.02 0.00 0.00 0.00 0.00 0.00 0.00 0.00 0.00 0.02 0.03 0.00 0.00 0.00 0.00 0.02 0.02 0.03 0.05 0.04 0.05 0.03 0.04 0.05 0.07 0.04 0.04 0.03 0.03 0.03 0.03
0.00 0.00 0.24 5.02 4.60 3.19 0.03 0.00 0.00 0.00 0.22 0.01 0.00 0.00 0.00 0.00 0.03 0.00 0.00 0.00 0.00 0.00 0.00 0.00 0.00 0.01 0.00 0.00 0.00 0.01 0.02 0.02 0.06 0.06 0.05 0.03 0.03 0.04 0.05 0.05 0.08 0.07 0.06 0.06
2.61 3.77 5.68 4.36 3.80 1.11 0.00 0.00 0.00 0.49 0.03 0.01 0.00 0.00 0.00 0.00 0.00 0.00 0.00 0.00 0.00 0.00 0.00 0.01 0.02 0.01 0.03 0.06 0.06 0.05 0.06 0.04 0.06 0.10 0.08 0.08 0.05 0.07 0.03 0.05 0.05 0.08 0.11 0.08
0.78 2.75 5.10 3.21 3.95 4.22 0.00 0.00 0.00 0.00 0.00 0.00 0.00 0.00 0.00 0.00 0.00 0.00 0.00 0.00 0.00 0.01 0.02 0.02 0.02 0.02 0.03 0.05 0.03 0.05 0.03 0.07 0.14 0.17 0.20 0.23 0.28 0.15 0.10 0.34 0.22 0.42 0.29 0.38
1.11 0.14 0.95 0.13 0.56 0.00 0.00 0.00 0.00 0.00 0.00 0.00 0.00 0.00 0.00 0.00 0.00 0.00 0.00 0.00 0.00 0.00 0.02 0.03 0.07 0.14 0.13 0.26 0.19 0.22 0.22 0.23 0.32 0.51 0.73 0.67 0.59 0.51 0.44 0.59 0.45 0.74 0.52 0.72
0.05 0.06 0.75 0.59 0.10 0.01 0.00 0.00 0.00 0.00 0.00 0.00 0.00 0.00 0.00 0.00 0.00 0.00 0.00 0.00 0.00 0.05 0.11 0.14 0.21 0.28 0.31 0.27 0.30 0.31 0.28 0.32 0.97 0.93 0.54 0.42 0.53 0.42 0.45 0.57 0.60 0.89 0.84 0.73
0.20 0.18 0.50 0.40 0.08 0.07 0.02 0.00 0.00 0.00 0.00 0.00 0.00 0.00 0.00 0.00 0.00 0.00 0.02 0.03 0.03 0.09 0.20 0.31 0.43 0.45 0.43 0.38 0.37 0.49 0.42 0.44 0.58 0.69 0.40 0.46 0.61 0.62 0.40 0.35 0.62 0.63 0.32 0.76
0.17 0.18 0.33 0.29 0.05 0.03 0.01 0.03 0.02 0.01 0.00 0.00 0.01 0.03 0.04 0.04 0.03 0.06 0.09 0.06 0.09 0.18 0.23 0.30 0.33 0.32 0.35 0.41 0.45 0.59 0.75 0.68 0.70 0.42 0.59 0.53 0.54 0.49 0.46 0.55 0.62 nan nan nan
SL_Ratio
nan nan nan nan nan nan nan nan nan nan nan nan nan nan nan nan nan nan nan nan nan nan nan nan nan nan nan nan nan nan nan nan nan nan nan nan nan nan nan nan nan nan nan nan
3.1 3.8 nan nan nan nan nan 3.3 3.8 nan nan nan nan nan nan nan nan nan nan nan nan nan nan nan nan nan nan nan nan nan nan nan nan nan nan nan nan nan nan nan nan nan nan nan
3.1 nan nan nan nan nan nan 3.8 3.3 nan nan nan nan nan nan nan nan nan nan nan nan nan nan nan nan nan nan nan nan nan nan nan nan nan nan nan nan nan nan nan nan nan nan nan
3.6 nan nan nan nan nan 3.0 nan nan nan 3.5 4.6 nan 4.7 nan nan nan nan nan nan nan nan nan nan nan nan nan nan nan nan nan nan nan nan nan nan nan nan nan nan nan nan nan nan
3.3 nan nan nan nan nan 3.3 nan nan nan 3.6 4.7 5.0 4.8 nan nan nan nan nan nan nan nan nan nan nan nan nan nan nan nan nan nan nan nan nan nan nan nan nan nan nan nan nan nan
nan nan nan nan nan nan nan nan nan nan 3.7 4.9 4.3 3.8 nan nan nan nan nan nan nan nan nan nan nan nan nan nan nan nan nan nan nan nan nan nan nan nan nan nan nan nan nan nan
2.7 2.9 nan nan 4.2 nan 3.9 4.3 4.9 5.2 5.2 5.2 nan 4.5 nan nan nan nan nan nan nan nan nan nan nan nan nan nan nan nan nan nan nan nan nan nan nan nan nan nan nan nan nan nan
4.3 4.6 3.3 nan 3.6 3.6 3.9 3.9 4.9 6.8 6.4 4.8 nan 4.3 nan nan nan nan nan nan nan nan nan nan nan nan nan nan nan nan nan nan nan nan nan nan nan nan nan nan nan nan nan nan
4.8 4.7 2.0 nan nan nan 4.4 4.9 nan 5.5 4.7 4.7 3.0 nan nan nan nan nan nan nan nan nan nan nan nan nan nan nan nan nan nan nan nan nan nan nan nan nan nan nan nan nan nan nan
3.9 5.9 3.4 3.5 3.8 3.5 3.7 nan 4.6 4.2 6.2 6.0 3.2 5.3 5.0 4.5 nan nan nan nan nan nan nan nan nan nan nan nan nan nan nan nan nan nan nan nan nan nan nan nan nan nan nan nan
2.6 5.2 4.6 3.6 3.4 3.2 3.5 3.8 3.8 3.2 3.5 5.9 5.7 6.4 4.2 4.1 5.0 4.0 nan nan nan nan nan nan nan nan nan nan nan nan nan nan nan nan nan nan nan nan nan nan nan nan nan nan
2.9 4.4 5.2 4.8 3.3 nan nan 4.4 4.7 4.9 4.9 4.7 5.4 7.3 3.6 3.6 3.8 3.9 4.2 nan nan nan nan nan nan nan nan nan nan nan nan nan nan nan nan nan nan nan nan nan nan nan nan nan
3.6 4.1 4.9 4.7 4.7 3.5 3.5 nan 3.6 4.8 4.9 7.0 6.5 6.6 3.2 3.9 3.8 3.9 3.8 3.6 4.1 3.6 5.0 4.5 0.0 0.0 nan nan nan nan nan nan nan nan nan nan nan nan nan nan nan nan nan nan
nan 4.4 5.6 5.6 5.3 3.9 4.9 4.4 3.6 5.3 5.1 5.1 5.4 5.7 5.0 4.5 4.9 4.2 3.8 3.5 3.5 3.7 3.6 3.4 3.5 3.6 3.3 3.3 2.9 nan nan nan nan nan nan nan nan nan nan nan nan nan nan nan
5.0 4.8 4.8 5.0 4.4 4.4 4.9 5.2 5.0 5.4 4.1 5.5 5.7 5.0 5.3 4.6 4.8 4.1 4.0 4.1 4.0 3.1 3.2 3.6 3.4 3.6 3.9 3.4 3.4 2.5 nan 2.7 nan nan nan nan nan nan nan nan nan nan nan nan
nan 3.9 5.4 5.4 5.1 4.5 6.0 5.1 4.8 5.4 4.8 5.0 5.2 5.9 3.8 3.8 3.9 4.5 4.6 4.1 4.2 4.0 3.2 3.0 3.6 3.4 4.1 3.9 3.7 2.9 2.5 2.4 5.0 2.9 5.0 nan nan nan 2.5 3.6 0.0 nan nan nan
4.0 4.1 3.4 4.1 5.8 5.9 5.1 6.2 5.5 5.0 4.1 4.1 5.5 5.0 3.8 3.8 3.8 4.4 4.5 4.4 5.1 4.4 4.6 5.0 4.9 3.2 4.6 4.0 3.1 4.7 3.3 4.1 nan nan 2.6 2.8 2.6 2.6 3.3 2.6 2.8 2.5 2.5 2.5
3.9 4.4 3.2 4.3 3.8 5.7 5.2 4.0 4.2 5.1 4.3 4.0 4.2 4.1 3.5 3.5 3.5 3.3 nan 5.0 4.2 4.4 5.0 nan nan 5.0 5.4 5.3 3.6 2.5 2.0 nan 2.4 0.0 2.6 2.5 2.4 2.6 2.5 2.6 3.0 3.8 3.6 4.7
nan 3.1 4.9 5.3 5.0 5.5 5.2 4.5 5.2 5.3 5.6 3.9 4.1 3.9 3.3 nan nan nan nan nan nan 5.0 4.4 4.8 4.2 nan nan 5.0 5.6 4.8 4.3 3.6 3.7 3.3 2.9 3.0 3.2 4.0 3.1 3.3 3.2 3.5 3.0 3.1
nan 5.0 3.4 4.5 4.3 6.6 5.1 nan nan 5.0 4.9 4.1 nan nan nan nan 4.5 5.0 nan nan nan nan nan nan 3.3 2.8 nan nan nan 2.9 3.4 3.4 5.3 4.9 4.6 4.1 3.3 3.6 4.1 4.2 4.3 3.9 3.8 3.7
3.9 3.8 4.4 4.5 4.4 4.1 nan nan nan 4.9 4.5 2.5 nan nan nan nan nan nan nan nan nan nan 2.5 3.3 3.3 3.0 3.8 4.0 3.9 4.0 4.1 4.6 4.4 4.7 4.6 4.1 3.6 3.4 3.2 3.2 3.4 3.3 3.2 3.4
5.3 4.9 4.8 4.8 4.8 5.9 nan 0.0 5.0 2.5 5.0 2.5 nan nan nan nan nan nan nan nan nan 3.5 4.8 4.8 4.1 4.9 5.1 5.5 4.5 4.6 4.8 5.3 5.6 5.9 5.6 5.0 3.8 3.5 3.4 3.0 3.6 3.2 3.3 3.5
5.2 3.9 3.7 4.0 3.5 nan nan nan nan nan nan nan nan nan nan nan nan nan nan nan 0.0 5.0 5.4 5.8 5.6 6.7 7.9 7.1 6.7 7.1 7.4 7.2 7.7 6.0 5.3 4.6 4.6 3.8 3.4 3.0 3.8 3.5 3.4 3.5
3.9 3.5 3.7 4.1 3.3 2.9 nan nan nan nan nan nan nan nan nan nan nan nan nan 0.0 5.0 6.2 6.9 7.4 7.9 9.0 10.1 9.2 9.2 7.7 8.2 8.3 5.3 5.2 6.4 6.0 5.2 4.7 4.4 3.5 3.2 3.2 3.6 3.9
4.0 4.1 5.2 4.5 4.5 4.2 3.2 0.0 nan nan nan nan nan nan nan nan nan nan 3.3 4.0 5.2 7.1 9.7 9.9 11.0 11.7 11.1 12.3 12.2 10.6 10.0 7.9 6.8 6.9 9.2 6.8 5.1 4.5 5.9 5.8 4.0 4.3 4.3 3.5
5.7 6.5 4.6 3.8 4.3 4.0 3.2 3.7 3.9 4.5 4.3 3.0 3.8 4.9 5.1 4.9 5.0 5.9 6.7 6.6 7.2 8.4 9.4 11.5 11.6 12.4 13.3 12.8 12.5 11.1 8.9 7.4 7.2 8.6 7.7 6.2 6.3 5.9 6.0 6.2 6.1 nan nan nan